Preview of NWS' New Version of Forecast
This preview is not operational and should not be used for support decisions.

Regional Weather Roundup (RWR)

Issued by Gray - Portland, ME (GYX)

                            
000
ASUS41 KGYX 160710
RWRGYX
WEATHER ROUNDUP FOR MAINE AND NEW HAMPSHIRE
NATIONAL WEATHER SERVICE GRAY ME
300 AM EDT TUE OCT 16 2018

MEZ002-005-006-010-012-015-018-020-021-024-026-027-029-160800-
MAINE
  
CITY           SKY/WX    TMP DP  RH WIND       PRES   REMARKS
PORTLAND       FAIR      52  37  56 W36G47    29.71R                  
SANFORD        MOCLDY    51  41  68 W13G30    29.76R                  
BAR HARBOR     MOCLDY    56  52  86 W8        29.56S                  
WISCASSET      FAIR      54  48  80 W8        29.66R                  
ROCKLAND       FAIR      56  54  93 W15       29.60R                  
FRYEBURG       FAIR      49  29  46 W9G26     29.74R                  
LEWISTONAUBURN MOCLDY    52  42  69 W14G24    29.69R                  
AUGUSTA        FAIR      49  41  74 W15G35    29.67R                  
WATERVILLE     FAIR      51  39  63 W13G26    29.63R                  
BANGOR         MOCLDY    53  46  77 W12G18    29.59R                  
GREENVILLE       N/A     41  33  73 W10G24    29.55R                  
MILLINOCKET    FAIR      49  38  65 W18G31    29.54R                  
HOULTON        CLOUDY    49  45  86 W13G28    29.46R                  
PRESQUE ISLE   FAIR      48  37  65 W16G30    29.43F                  
FRENCHVILLE    LGT RAIN  47  32  56 SW23G47   29.35F                  
CARIBOU        FAIR      48  37  65 W18G35    29.39F                  
$$

NHZ002-005-008-009-011-012-014-160800-
NEW HAMPSHIRE
  
CITY           SKY/WX    TMP DP  RH WIND       PRES   REMARKS
PORTSMOUTH     MOCLDY    53  35  50 W24G36    29.74R                  
ROCHESTER      FAIR      52  42  69 W13G21    29.76R                  
NASHUA         FAIR      53  35  50 NW22      29.83R                  
MANCHESTER     FAIR      53  34  48 W15G38    29.81R                  
CONCORD        FAIR      50  33  52 W28G40    29.79R                  
LACONIA        FAIR      49  32  52 W25G39    29.80R                  
PLYMOUTH       FAIR      47  29  48 W25G37    29.82R                  
BERLIN         MOCLDY    43  29  57 W15G33    29.76R                  
WHITEFIELD     FAIR      42  30  62 W15G30    29.80R                  
JAFFREY        MOCLDY    49  32  52 W9G24     29.88R                  
KEENE          FAIR      49  29  46 NW23G32   29.91R                  
LEBANON        FAIR      48  27  44 NW14G23   29.86R                  
MT WASHINGTON  NOT AVBL                                               
$$

VTZ005-007-008-160800-
VERMONT
  
CITY           SKY/WX    TMP DP  RH WIND       PRES   REMARKS
ST JOHNSBURY     N/A     43  26  51 MISG      29.82R                  
MONTPELIER     FAIR      41  24  51 W14G28    29.89R                  
BURLINGTON     FAIR      44  27  51 W23G32    29.90R                  
$$

MAZ007-012-024-CTZ003-RIZ002-NYZ038-NYZ072-160800-
SOUTHERN NEW ENGLAND AND NY
  
CITY           SKY/WX    TMP DP  RH WIND       PRES   REMARKS
BOSTON         FAIR      56  43  61 W24G36    29.82R                  
WORCESTER      FAIR      48  42  80 W24G35    29.85R                  
NANTUCKET      LGT RAIN  61  57  87 NW26G39   29.81R                  
PROVIDENCE     MOCLDY    55  51  86 NW15      29.86R                  
HARTFORD       CLOUDY    51  39  63 NW16G23   29.94R                  
ALBANY         FAIR      45  26  47 W14       30.05R                  
NEW YORK CITY  CLOUDY    60  44  55 NW26G36   29.97R                  
$$

ANZ081-ANZ082-ANZ150-NHZ014-MEZ023>029-160800-
COASTAL MARINE OBSERVATIONS
  
STATION/POSITION TIME  TEMP    WIND        PRES    WAVE
                       AIR SEA DIR/SP/G            HT/PER
                 (UTC) (F)     (DEG/KT/KT) (MB)    (FT/S)
MOUNT DESERT ROC 0700   56     240/ 29/ 32 1001.0R
MATINICUS ROCK   0600   56     260/ 31/ 35 1001.4R
ISLE OF SHOALS   0600   57     270/ 24/ 28 1005.8R
JEFFREYS LEDGE   0606      57                N/A     6/ 4
$$

.............KEY..............
   WCI - WIND CHILL
   TC  - TEMPERATURE IN CELSIUS
   VSB - VISIBILITY IN MILES
   HX  - HEAT INDEX
   FAIR- INDICATES FEW OR NO CLOUDS BELOW 12,000 FT, WITH NO 
         SIGNIFICANT WEATHER AND/OR OBSTRUCTIONS TO VISIBILITY.